Time,TemperatureF,DewpointF,PressureIn,WindDirection,WindDirectionDegrees,WindSpeedMPH,WindSpeedGustMPH,Humidity,HourlyPrecipIn,Conditions,Clouds,dailyrainin,SoftwareType,DateUTC
2013-01-11 00:03:00,35.3,33.8,29.70,SE,145,3.0,7.0,94,0.00,,,0.24,VWS V14.00,2013-01-11 06:03:00,
2013-01-11 00:08:00,35.3,33.8,29.71,SE,142,5.0,5.0,94,0.00,,,0.00,VWS V14.00,2013-01-11 06:08:00,
2013-01-11 00:13:00,35.5,34.0,29.71,South,185,5.0,7.0,94,0.00,,,0.00,VWS V14.00,2013-01-11 06:13:00,
2013-01-11 00:18:00,35.6,34.0,29.70,SSE,157,6.0,10.0,94,0.00,,,0.00,VWS V14.00,2013-01-11 06:18:00,
2013-01-11 00:23:00,35.8,34.2,29.70,SSE,167,4.0,10.0,94,0.00,,,0.00,VWS V14.00,2013-01-11 06:23:00,
2013-01-11 00:28:00,35.9,34.3,29.70,SSE,161,3.0,10.0,94,0.00,,,0.00,VWS V14.00,2013-01-11 06:28:00,
2013-01-11 00:33:00,35.9,34.3,29.70,South,169,3.0,10.0,94,0.00,,,0.00,VWS V14.00,2013-01-11 06:33:00,
2013-01-11 00:38:00,36.0,34.4,29.70,South,171,3.0,6.0,94,0.00,,,0.00,VWS V14.00,2013-01-11 06:38:00,
2013-01-11 00:43:00,36.0,34.4,29.70,SSW,196,4.0,7.0,94,0.00,,,0.00,VWS V14.00,2013-01-11 06:43:00,
2013-01-11 00:48:00,36.1,34.5,29.69,SSE,162,3.0,7.0,94,0.00,,,0.00,VWS V14.00,2013-01-11 06:48:00,
2013-01-11 00:53:00,36.1,34.5,29.69,South,183,0.0,7.0,94,0.00,,,0.00,VWS V14.00,2013-01-11 06:53:00,
2013-01-11 00:58:00,36.1,34.5,29.68,South,183,2.0,7.0,94,0.00,,,0.00,VWS V14.00,2013-01-11 06:58:00,
2013-01-11 01:03:00,36.1,34.5,29.68,SSW,202,3.0,7.0,94,0.00,,,0.00,VWS V14.00,2013-01-11 07:03:00,
2013-01-11 01:08:00,36.1,34.5,29.68,SSE,163,2.0,4.0,94,0.00,,,0.00,VWS V14.00,2013-01-11 07:08:00,
2013-01-11 01:13:00,36.0,34.4,29.68,South,169,3.0,5.0,94,0.00,,,0.00,VWS V14.00,2013-01-11 07:13:00,
2013-01-11 01:18:00,36.0,34.4,29.67,South,175,2.0,5.0,94,0.00,,,0.00,VWS V14.00,2013-01-11 07:18:00,
2013-01-11 01:23:00,36.0,34.4,29.67,South,178,2.0,5.0,94,0.00,,,0.00,VWS V14.00,2013-01-11 07:23:00,
2013-01-11 01:28:00,36.0,34.4,29.67,SSW,194,2.0,5.0,94,0.00,,,0.00,VWS V14.00,2013-01-11 07:28:00,
2013-01-11 01:33:00,35.9,34.3,29.67,SSE,163,2.0,5.0,94,0.00,,,0.00,VWS V14.00,2013-01-11 07:33:00,
2013-01-11 01:38:00,35.9,34.3,29.67,South,189,1.0,6.0,94,0.00,,,0.00,VWS V14.00,2013-01-11 07:38:00,
2013-01-11 01:43:00,35.8,34.2,29.67,SSE,156,2.0,6.0,94,0.00,,,0.00,VWS V14.00,2013-01-11 07:43:00,
2013-01-11 01:48:00,35.8,34.2,29.67,SSW,194,3.0,6.0,94,0.00,,,0.00,VWS V14.00,2013-01-11 07:48:00,
2013-01-11 01:53:00,35.7,34.2,29.67,South,183,4.0,6.0,94,0.00,,,0.00,VWS V14.00,2013-01-11 07:53:00,
2013-01-11 01:58:00,35.6,34.0,29.67,South,188,3.0,6.0,94,0.00,,,0.00,VWS V14.00,2013-01-11 07:58:00,
2013-01-11 02:03:00,35.5,34.0,29.66,South,186,2.0,6.0,94,0.00,,,0.00,VWS V14.00,2013-01-11 08:03:00,
2013-01-11 02:08:00,35.4,33.8,29.66,South,182,0.0,4.0,94,0.00,,,0.00,VWS V14.00,2013-01-11 08:08:00,
2013-01-11 02:13:00,35.3,33.8,29.66,South,180,1.0,4.0,94,0.00,,,0.00,VWS V14.00,2013-01-11 08:13:00,
2013-01-11 02:18:00,35.3,33.8,29.66,South,173,0.0,6.0,94,0.00,,,0.00,VWS V14.00,2013-01-11 08:18:00,
2013-01-11 02:23:00,35.2,33.7,29.66,SSE,161,1.0,6.0,94,0.00,,,0.00,VWS V14.00,2013-01-11 08:23:00,
2013-01-11 02:28:00,35.1,33.5,29.66,South,180,4.0,6.0,94,0.00,,,0.00,VWS V14.00,2013-01-11 08:28:00,
2013-01-11 02:33:00,35.0,33.5,29.67,SSE,165,2.0,6.0,94,0.00,,,0.00,VWS V14.00,2013-01-11 08:33:00,
2013-01-11 02:38:00,35.0,33.5,29.66,SSE,159,1.0,5.0,94,0.00,,,0.00,VWS V14.00,2013-01-11 08:38:00,
2013-01-11 02:42:00,34.8,33.2,29.65,SSE,168,2.0,5.0,94,0.00,,,0.00,VWS V14.00,2013-01-11 08:42:00,
2013-01-11 02:47:00,34.8,33.2,29.65,SSE,168,2.0,5.0,94,0.00,,,0.00,VWS V14.00,2013-01-11 08:47:00,
2013-01-11 02:52:00,34.8,33.2,29.65,SSE,155,3.0,5.0,94,0.00,,,0.00,VWS V14.00,2013-01-11 08:52:00,
2013-01-11 02:57:00,34.7,33.2,29.65,SE,142,4.0,9.0,94,0.00,,,0.00,VWS V14.00,2013-01-11 08:57:00,
2013-01-11 03:02:00,34.7,33.2,29.65,South,169,4.0,9.0,94,0.00,,,0.00,VWS V14.00,2013-01-11 09:02:00,
2013-01-11 03:07:00,34.8,33.2,29.65,SSE,153,4.0,6.0,94,0.00,,,0.00,VWS V14.00,2013-01-11 09:07:00,
2013-01-11 03:12:00,34.9,33.3,29.65,South,184,4.0,6.0,94,0.00,,,0.00,VWS V14.00,2013-01-11 09:12:00,
2013-01-11 03:17:00,35.1,33.5,29.64,South,175,2.0,7.0,94,0.00,,,0.00,VWS V14.00,2013-01-11 09:17:00,
2013-01-11 03:22:00,35.1,33.5,29.64,South,175,2.0,7.0,94,0.00,,,0.00,VWS V14.00,2013-01-11 09:22:00,
2013-01-11 03:27:00,35.2,33.7,29.64,SSE,167,5.0,7.0,94,0.00,,,0.00,VWS V14.00,2013-01-11 09:27:00,
2013-01-11 03:32:00,35.3,33.8,29.63,SSE,167,3.0,7.0,94,0.00,,,0.00,VWS V14.00,2013-01-11 09:32:00,
2013-01-11 03:37:00,35.3,33.8,29.63,SE,136,5.0,5.0,94,0.00,,,0.00,VWS V14.00,2013-01-11 09:37:00,
2013-01-11 03:42:00,35.3,33.8,29.62,SSE,157,4.0,6.0,94,0.00,,,0.00,VWS V14.00,2013-01-11 09:42:00,
2013-01-11 03:47:00,35.2,33.7,29.62,SE,125,2.0,6.0,94,0.00,,,0.00,VWS V14.00,2013-01-11 09:47:00,
2013-01-11 03:52:00,35.2,33.7,29.62,SSE,153,2.0,6.0,94,0.00,,,0.00,VWS V14.00,2013-01-11 09:52:00,
2013-01-11 03:57:00,35.2,33.7,29.61,SE,145,3.0,6.0,94,0.00,,,0.00,VWS V14.00,2013-01-11 09:57:00,
2013-01-11 04:02:00,35.2,33.7,29.60,SSE,153,3.0,6.0,94,0.00,,,0.00,VWS V14.00,2013-01-11 10:02:00,
2013-01-11 04:07:00,35.3,33.8,29.60,SSE,147,2.0,3.0,94,0.00,,,0.00,VWS V14.00,2013-01-11 10:07:00,
2013-01-11 04:12:00,35.4,33.8,29.60,SSE,160,1.0,4.0,94,0.00,,,0.00,VWS V14.00,2013-01-11 10:12:00,
2013-01-11 04:17:00,35.5,34.0,29.60,SSE,151,2.0,4.0,94,0.00,,,0.00,VWS V14.00,2013-01-11 10:17:00,
2013-01-11 04:22:00,35.7,34.2,29.60,SSE,159,1.0,5.0,94,0.00,,,0.00,VWS V14.00,2013-01-11 10:22:00,
2013-01-11 04:27:00,35.8,34.2,29.59,SSE,159,2.0,5.0,94,0.00,,,0.00,VWS V14.00,2013-01-11 10:27:00,
2013-01-11 04:32:00,36.0,34.7,29.59,SE,146,6.0,6.0,95,0.00,,,0.00,VWS V14.00,2013-01-11 10:32:00,
2013-01-11 04:37:00,36.2,34.6,29.59,SE,137,2.0,6.0,94,0.00,,,0.00,VWS V14.00,2013-01-11 10:37:00,
2013-01-11 04:42:00,36.3,34.7,29.58,SE,142,1.0,6.0,94,0.00,,,0.00,VWS V14.00,2013-01-11 10:42:00,
2013-01-11 04:47:00,36.4,34.8,29.58,ESE,121,0.0,6.0,94,0.00,,,0.00,VWS V14.00,2013-01-11 10:47:00,
2013-01-11 04:52:00,36.4,34.8,29.58,SE,140,2.0,6.0,94,0.00,,,0.00,VWS V14.00,2013-01-11 10:52:00,
2013-01-11 04:57:00,36.2,34.6,29.58,ESE,123,3.0,6.0,94,0.00,,,0.00,VWS V14.00,2013-01-11 10:57:00,
2013-01-11 05:02:00,36.2,34.6,29.58,SE,129,1.0,6.0,94,0.00,,,0.00,VWS V14.00,2013-01-11 11:02:00,
2013-01-11 05:07:00,36.1,34.5,29.58,SE,126,3.0,5.0,94,0.00,,,0.00,VWS V14.00,2013-01-11 11:07:00,
2013-01-11 05:12:00,36.1,34.5,29.58,SE,139,1.0,5.0,94,0.00,,,0.00,VWS V14.00,2013-01-11 11:12:00,
2013-01-11 05:17:00,36.1,34.5,29.57,ESE,116,4.0,5.0,94,0.00,,,0.00,VWS V14.00,2013-01-11 11:17:00,
2013-01-11 05:22:00,36.1,34.5,29.57,SE,127,2.0,5.0,94,0.00,,,0.00,VWS V14.00,2013-01-11 11:22:00,
2013-01-11 05:27:00,36.2,34.6,29.57,ESE,111,7.0,7.0,94,0.00,,,0.00,VWS V14.00,2013-01-11 11:27:00,
2013-01-11 05:32:00,36.2,34.6,29.57,ESE,123,2.0,7.0,94,0.00,,,0.00,VWS V14.00,2013-01-11 11:32:00,
2013-01-11 05:37:00,36.3,34.7,29.57,ESE,114,3.0,5.0,94,0.00,,,0.00,VWS V14.00,2013-01-11 11:37:00,
2013-01-11 05:42:00,36.5,34.9,29.56,SE,134,4.0,7.0,94,0.00,,,0.00,VWS V14.00,2013-01-11 11:42:00,
2013-01-11 05:47:00,36.6,35.3,29.56,SE,127,4.0,7.0,95,0.00,,,0.00,VWS V14.00,2013-01-11 11:47:00,
2013-01-11 05:52:00,36.7,35.4,29.56,SE,126,3.0,7.0,95,0.00,,,0.00,VWS V14.00,2013-01-11 11:52:00,
2013-01-11 05:57:00,36.8,35.5,29.55,ESE,117,3.0,7.0,95,0.00,,,0.00,VWS V14.00,2013-01-11 11:57:00,
2013-01-11 06:02:00,36.9,35.6,29.55,SE,133,3.0,7.0,95,0.00,,,0.00,VWS V14.00,2013-01-11 12:02:00,
2013-01-11 06:07:00,37.1,35.8,29.55,SE,130,5.0,9.0,95,0.00,,,0.00,VWS V14.00,2013-01-11 12:07:00,
2013-01-11 06:12:00,37.4,36.1,29.55,SE,138,6.0,9.0,95,0.00,,,0.00,VWS V14.00,2013-01-11 12:12:00,
2013-01-11 06:17:00,37.6,36.3,29.55,SE,125,3.0,9.0,95,0.00,,,0.00,VWS V14.00,2013-01-11 12:17:00,
2013-01-11 06:22:00,37.7,36.4,29.55,SE,137,4.0,9.0,95,0.00,,,0.00,VWS V14.00,2013-01-11 12:22:00,
2013-01-11 06:27:00,37.8,36.5,29.55,SE,132,4.0,9.0,95,0.00,,,0.00,VWS V14.00,2013-01-11 12:27:00,
2013-01-11 06:32:00,37.8,36.5,29.55,SSE,150,3.0,9.0,95,0.00,,,0.00,VWS V14.00,2013-01-11 12:32:00,
2013-01-11 06:37:00,37.9,36.6,29.55,SE,126,2.0,6.0,95,0.00,,,0.00,VWS V14.00,2013-01-11 12:37:00,
2013-01-11 06:42:00,37.9,36.6,29.55,SE,139,3.0,6.0,95,0.00,,,0.01,VWS V14.00,2013-01-11 12:42:00,
2013-01-11 06:47:00,37.9,36.6,29.54,ESE,110,4.0,7.0,95,0.00,,,0.01,VWS V14.00,2013-01-11 12:47:00,
2013-01-11 06:52:00,37.9,36.6,29.54,SE,132,4.0,7.0,95,0.00,,,0.01,VWS V14.00,2013-01-11 12:52:00,
2013-01-11 06:57:00,37.9,36.6,29.54,SE,140,1.0,9.0,95,0.00,,,0.01,VWS V14.00,2013-01-11 12:57:00,
2013-01-11 07:02:00,37.9,36.6,29.55,SE,134,3.0,9.0,95,0.00,,,0.01,VWS V14.00,2013-01-11 13:02:00,
2013-01-11 07:07:00,37.9,36.6,29.54,ESE,105,2.0,6.0,95,0.00,,,0.01,VWS V14.00,2013-01-11 13:07:00,
2013-01-11 07:12:00,38.0,36.7,29.54,ESE,121,3.0,6.0,95,0.00,,,0.01,VWS V14.00,2013-01-11 13:12:00,
2013-01-11 07:17:00,38.0,36.7,29.53,ESE,113,4.0,6.0,95,0.00,,,0.01,VWS V14.00,2013-01-11 13:17:00,
2013-01-11 07:22:00,38.2,36.9,29.53,SE,138,5.0,9.0,95,0.00,,,0.01,VWS V14.00,2013-01-11 13:22:00,
2013-01-11 07:27:00,38.4,37.1,29.53,SSE,152,3.0,9.0,95,0.00,,,0.01,VWS V14.00,2013-01-11 13:27:00,
2013-01-11 07:32:00,38.5,37.2,29.53,SE,132,8.0,9.0,95,0.00,,,0.01,VWS V14.00,2013-01-11 13:32:00,
2013-01-11 07:37:00,38.5,37.2,29.53,SE,134,5.0,7.0,95,0.00,,,0.01,VWS V14.00,2013-01-11 13:37:00,
2013-01-11 07:42:00,38.6,37.3,29.53,SE,136,3.0,7.0,95,0.00,,,0.01,VWS V14.00,2013-01-11 13:42:00,
2013-01-11 07:47:00,38.6,37.3,29.52,ESE,117,3.0,7.0,95,0.00,,,0.01,VWS V14.00,2013-01-11 13:47:00,
2013-01-11 07:52:00,38.7,37.4,29.52,ESE,122,6.0,7.0,95,0.00,,,0.01,VWS V14.00,2013-01-11 13:52:00,
2013-01-11 07:57:00,38.8,37.5,29.52,ESE,114,2.0,9.0,95,0.00,,,0.01,VWS V14.00,2013-01-11 13:57:00,
2013-01-11 08:02:00,38.8,37.5,29.52,ESE,123,6.0,9.0,95,0.00,,,0.01,VWS V14.00,2013-01-11 14:02:00,
2013-01-11 08:07:00,38.8,37.5,29.52,SE,132,3.0,10.0,95,0.00,,,0.01,VWS V14.00,2013-01-11 14:07:00,
2013-01-11 08:12:00,38.8,37.5,29.52,ESE,113,3.0,10.0,95,0.00,,,0.01,VWS V14.00,2013-01-11 14:12:00,
2013-01-11 08:17:00,38.9,37.6,29.54,SSE,148,3.0,10.0,95,0.00,,,0.01,VWS V14.00,2013-01-11 14:17:00,
2013-01-11 08:22:00,39.0,37.7,29.54,ESE,123,4.0,10.0,95,0.00,,,0.01,VWS V14.00,2013-01-11 14:22:00,
2013-01-11 08:27:00,39.1,37.8,29.53,SE,134,3.0,10.0,95,0.00,,,0.01,VWS V14.00,2013-01-11 14:27:00,
2013-01-11 08:32:00,39.2,37.9,29.52,ESE,122,4.0,10.0,95,0.00,,,0.01,VWS V14.00,2013-01-11 14:32:00,
2013-01-11 08:37:00,39.2,37.9,29.52,SE,128,4.0,7.0,95,0.00,,,0.01,VWS V14.00,2013-01-11 14:37:00,
2013-01-11 08:42:00,39.3,38.0,29.52,ESE,122,2.0,7.0,95,0.00,,,0.01,VWS V14.00,2013-01-11 14:42:00,
2013-01-11 08:47:00,39.3,38.0,29.51,SE,136,2.0,7.0,95,0.00,,,0.01,VWS V14.00,2013-01-11 14:47:00,
2013-01-11 08:51:00,39.4,38.1,29.52,SSE,148,2.0,7.0,95,0.00,,,0.01,VWS V14.00,2013-01-11 14:51:00,
2013-01-11 08:56:00,39.6,38.3,29.52,SSE,153,7.0,7.0,95,0.00,,,0.01,VWS V14.00,2013-01-11 14:56:00,
2013-01-11 09:01:00,39.6,38.3,29.51,SE,138,5.0,7.0,95,0.00,,,0.01,VWS V14.00,2013-01-11 15:01:00,
2013-01-11 09:06:00,39.6,38.3,29.50,SE,136,4.0,6.0,95,0.00,,,0.01,VWS V14.00,2013-01-11 15:06:00,
2013-01-11 09:11:00,39.7,38.4,29.50,SE,128,2.0,7.0,95,0.00,,,0.01,VWS V14.00,2013-01-11 15:11:00,
2013-01-11 09:16:00,39.8,38.5,29.51,SE,146,4.0,7.0,95,0.00,,,0.01,VWS V14.00,2013-01-11 15:16:00,
2013-01-11 09:21:00,40.0,38.7,29.51,SE,126,4.0,10.0,95,0.00,,,0.01,VWS V14.00,2013-01-11 15:21:00,
2013-01-11 09:26:00,40.2,38.9,29.51,SSE,159,2.0,10.0,95,0.00,,,0.01,VWS V14.00,2013-01-11 15:26:00,
2013-01-11 09:31:00,40.3,39.0,29.50,SSE,165,3.0,10.0,95,0.00,,,0.01,VWS V14.00,2013-01-11 15:31:00,
2013-01-11 09:36:00,40.5,39.2,29.50,SE,135,3.0,9.0,95,0.00,,,0.01,VWS V14.00,2013-01-11 15:36:00,
2013-01-11 09:41:00,40.5,39.2,29.51,SE,137,5.0,9.0,95,0.00,,,0.01,VWS V14.00,2013-01-11 15:41:00,
2013-01-11 09:46:00,40.6,39.3,29.50,SE,126,3.0,9.0,95,0.00,,,0.01,VWS V14.00,2013-01-11 15:46:00,
2013-01-11 09:51:00,40.6,39.3,29.50,SE,142,6.0,9.0,95,0.00,,,0.01,VWS V14.00,2013-01-11 15:51:00,
2013-01-11 09:56:00,40.8,39.5,29.50,SSE,157,5.0,9.0,95,0.00,,,0.01,VWS V14.00,2013-01-11 15:56:00,
2013-01-11 10:01:00,40.9,39.6,29.49,South,173,4.0,9.0,95,0.00,,,0.01,VWS V14.00,2013-01-11 16:01:00,
2013-01-11 10:06:00,41.0,39.7,29.49,SSE,153,5.0,7.0,95,0.00,,,0.01,VWS V14.00,2013-01-11 16:06:00,
2013-01-11 10:11:00,41.1,39.8,29.49,SE,145,4.0,10.0,95,0.00,,,0.01,VWS V14.00,2013-01-11 16:11:00,
2013-01-11 10:16:00,41.2,39.9,29.49,SE,144,5.0,10.0,95,0.00,,,0.01,VWS V14.00,2013-01-11 16:16:00,
2013-01-11 10:21:00,41.2,39.9,29.49,SE,142,4.0,10.0,95,0.00,,,0.01,VWS V14.00,2013-01-11 16:21:00,
2013-01-11 10:26:00,41.2,39.9,29.49,SSE,150,3.0,14.0,95,0.00,,,0.01,VWS V14.00,2013-01-11 16:26:00,
2013-01-11 10:31:00,41.3,40.0,29.49,SSE,168,5.0,14.0,95,0.00,,,0.01,VWS V14.00,2013-01-11 16:31:00,
2013-01-11 10:36:00,41.3,40.0,29.49,South,188,6.0,8.0,95,0.00,,,0.01,VWS V14.00,2013-01-11 16:36:00,
2013-01-11 10:41:00,41.3,40.0,29.49,SE,133,5.0,11.0,95,0.00,,,0.01,VWS V14.00,2013-01-11 16:41:00,
2013-01-11 10:46:00,41.4,40.1,29.48,SE,131,3.0,11.0,95,0.00,,,0.01,VWS V14.00,2013-01-11 16:46:00,
2013-01-11 10:51:00,41.3,40.0,29.48,SSE,156,3.0,11.0,95,0.00,,,0.01,VWS V14.00,2013-01-11 16:51:00,
2013-01-11 10:56:00,41.4,40.1,29.49,SSE,161,4.0,11.0,95,0.00,,,0.01,VWS V14.00,2013-01-11 16:56:00,
2013-01-11 11:01:00,41.5,40.2,29.48,SSE,157,6.0,11.0,95,0.00,,,0.01,VWS V14.00,2013-01-11 17:01:00,
2013-01-11 11:06:00,41.6,40.3,29.47,SSE,148,5.0,12.0,95,0.00,,,0.01,VWS V14.00,2013-01-11 17:06:00,
2013-01-11 11:11:00,41.5,40.2,29.47,SSE,150,3.0,12.0,95,0.00,,,0.01,VWS V14.00,2013-01-11 17:11:00,
2013-01-11 11:16:00,41.5,40.2,29.46,SSE,155,4.0,12.0,95,0.00,,,0.01,VWS V14.00,2013-01-11 17:16:00,
2013-01-11 11:21:00,41.5,40.2,29.47,South,176,4.0,12.0,95,0.00,,,0.01,VWS V14.00,2013-01-11 17:21:00,
2013-01-11 11:26:00,41.5,40.2,29.47,South,174,4.0,12.0,95,0.00,,,0.01,VWS V14.00,2013-01-11 17:26:00,
2013-01-11 11:31:00,41.6,40.3,29.47,SSW,194,6.0,12.0,95,0.00,,,0.01,VWS V14.00,2013-01-11 17:31:00,
2013-01-11 11:36:00,41.6,40.3,29.46,SE,145,3.0,6.0,95,0.00,,,0.01,VWS V14.00,2013-01-11 17:36:00,
2013-01-11 11:41:00,41.7,40.4,29.45,SE,140,3.0,9.0,95,0.00,,,0.01,VWS V14.00,2013-01-11 17:41:00,
2013-01-11 11:46:00,41.6,40.3,29.45,ESE,122,2.0,9.0,95,0.00,,,0.01,VWS V14.00,2013-01-11 17:46:00,
2013-01-11 11:51:00,41.6,40.3,29.45,SSE,156,3.0,10.0,95,0.00,,,0.01,VWS V14.00,2013-01-11 17:51:00,
2013-01-11 11:56:00,41.6,40.3,29.45,SSE,148,4.0,10.0,95,0.00,,,0.01,VWS V14.00,2013-01-11 17:56:00,
2013-01-11 12:01:00,41.8,40.5,29.44,SSE,164,6.0,10.0,95,0.00,,,0.01,VWS V14.00,2013-01-11 18:01:00,
2013-01-11 12:06:00,42.0,40.7,29.44,SSW,201,4.0,10.0,95,0.00,,,0.01,VWS V14.00,2013-01-11 18:06:00,
2013-01-11 12:11:00,42.1,40.8,29.43,South,176,3.0,10.0,95,0.00,,,0.01,VWS V14.00,2013-01-11 18:11:00,
2013-01-11 12:16:00,42.4,41.1,29.43,SSE,165,3.0,10.0,95,0.00,,,0.01,VWS V14.00,2013-01-11 18:16:00,
2013-01-11 12:21:00,42.6,41.3,29.43,SSE,156,5.0,10.0,95,0.00,,,0.01,VWS V14.00,2013-01-11 18:21:00,
2013-01-11 12:26:00,42.8,41.5,29.43,ESE,119,6.0,11.0,95,0.00,,,0.01,VWS V14.00,2013-01-11 18:26:00,
2013-01-11 12:31:00,42.9,41.6,29.42,SSW,198,4.0,11.0,95,0.00,,,0.01,VWS V14.00,2013-01-11 18:31:00,
2013-01-11 12:36:00,43.1,41.8,29.42,SSE,166,4.0,7.0,95,0.00,,,0.01,VWS V14.00,2013-01-11 18:36:00,
2013-01-11 12:41:00,43.1,41.8,29.42,SSE,156,3.0,7.0,95,0.00,,,0.01,VWS V14.00,2013-01-11 18:41:00,
2013-01-11 12:46:00,43.1,41.8,29.41,SSE,167,5.0,9.0,95,0.00,,,0.01,VWS V14.00,2013-01-11 18:46:00,
2013-01-11 12:51:00,43.1,41.8,29.41,SSE,159,3.0,9.0,95,0.00,,,0.01,VWS V14.00,2013-01-11 18:51:00,
2013-01-11 12:56:00,43.2,41.9,29.40,South,180,6.0,12.0,95,0.00,,,0.01,VWS V14.00,2013-01-11 18:56:00,
2013-01-11 13:01:00,43.2,41.9,29.40,SE,140,3.0,12.0,95,0.00,,,0.01,VWS V14.00,2013-01-11 19:01:00,
2013-01-11 13:06:00,43.3,42.0,29.40,SE,145,9.0,10.0,95,0.00,,,0.01,VWS V14.00,2013-01-11 19:06:00,
2013-01-11 13:11:00,43.5,42.2,29.40,SSE,150,6.0,12.0,95,0.00,,,0.01,VWS V14.00,2013-01-11 19:11:00,
2013-01-11 13:16:00,43.8,42.5,29.40,South,179,7.0,12.0,95,0.00,,,0.01,VWS V14.00,2013-01-11 19:16:00,
2013-01-11 13:21:00,44.0,42.7,29.40,South,180,5.0,14.0,95,0.00,,,0.01,VWS V14.00,2013-01-11 19:21:00,
2013-01-11 13:26:00,44.2,42.9,29.39,SSW,207,4.0,14.0,95,0.00,,,0.01,VWS V14.00,2013-01-11 19:26:00,
2013-01-11 13:31:00,44.2,42.9,29.39,South,184,5.0,14.0,95,0.00,,,0.01,VWS V14.00,2013-01-11 19:31:00,
2013-01-11 13:36:00,44.3,43.0,29.40,South,184,11.0,12.0,95,0.00,,,0.01,VWS V14.00,2013-01-11 19:36:00,
2013-01-11 13:41:00,44.4,42.8,29.39,SSE,157,4.0,16.0,94,0.00,,,0.01,VWS V14.00,2013-01-11 19:41:00,
2013-01-11 13:46:00,44.5,42.9,29.40,SE,141,1.0,16.0,94,0.00,,,0.01,VWS V14.00,2013-01-11 19:46:00,
2013-01-11 13:51:00,44.6,43.0,29.40,SE,145,3.0,16.0,94,0.00,,,0.01,VWS V14.00,2013-01-11 19:51:00,
2013-01-11 13:56:00,44.7,43.1,29.40,SSE,163,3.0,16.0,94,0.00,,,0.01,VWS V14.00,2013-01-11 19:56:00,
2013-01-11 14:01:00,44.8,42.9,29.40,SSW,201,5.0,16.0,93,0.00,,,0.01,VWS V14.00,2013-01-11 20:01:00,
2013-01-11 14:06:00,45.0,43.1,29.41,South,175,3.0,3.0,93,0.00,,,0.01,VWS V14.00,2013-01-11 20:06:00,
2013-01-11 14:11:00,45.0,42.8,29.42,SSW,194,5.0,14.0,92,0.00,,,0.01,VWS V14.00,2013-01-11 20:11:00,
2013-01-11 14:16:00,45.0,42.8,29.41,SSW,203,3.0,14.0,92,0.00,,,0.01,VWS V14.00,2013-01-11 20:16:00,
2013-01-11 14:20:00,45.1,42.6,29.41,SSW,198,1.0,14.0,91,0.00,,,0.01,VWS V14.00,2013-01-11 20:20:00,
2013-01-11 14:25:00,45.1,42.6,29.41,SSW,212,0.0,14.0,91,0.00,,,0.01,VWS V14.00,2013-01-11 20:25:00,
2013-01-11 14:30:00,45.1,42.3,29.40,SSW,200,2.0,14.0,90,0.00,,,0.01,VWS V14.00,2013-01-11 20:30:00,
2013-01-11 14:35:00,45.0,42.2,29.41,WSW,246,1.0,5.0,90,0.00,,,0.01,VWS V14.00,2013-01-11 20:35:00,
2013-01-11 14:40:00,45.0,42.0,29.40,West,265,1.0,6.0,89,0.00,,,0.01,VWS V14.00,2013-01-11 20:40:00,
2013-01-11 14:45:00,45.0,42.0,29.40,WSW,238,0.0,6.0,89,0.00,,,0.01,VWS V14.00,2013-01-11 20:45:00,
2013-01-11 14:50:00,44.8,41.5,29.41,SSW,209,3.0,6.0,88,0.00,,,0.01,VWS V14.00,2013-01-11 20:50:00,
2013-01-11 14:55:00,44.7,41.1,29.43,SSW,207,7.0,7.0,87,0.00,,,0.01,VWS V14.00,2013-01-11 20:55:00,
2013-01-11 15:00:00,44.7,41.1,29.42,WSW,244,1.0,9.0,87,0.00,,,0.01,VWS V14.00,2013-01-11 21:00:00,
2013-01-11 15:05:00,44.6,40.7,29.42,SSW,202,3.0,6.0,86,0.00,,,0.01,VWS V14.00,2013-01-11 21:05:00,
2013-01-11 15:10:00,44.7,40.8,29.41,SW,229,3.0,6.0,86,0.00,,,0.01,VWS V14.00,2013-01-11 21:10:00,
2013-01-11 15:15:00,44.7,40.5,29.41,SSW,203,3.0,6.0,85,0.00,,,0.01,VWS V14.00,2013-01-11 21:15:00,
2013-01-11 15:20:00,44.8,40.6,29.40,South,180,6.0,6.0,85,0.00,,,0.01,VWS V14.00,2013-01-11 21:20:00,
2013-01-11 15:25:00,45.0,40.8,29.40,SSW,207,2.0,6.0,85,0.00,,,0.01,VWS V14.00,2013-01-11 21:25:00,
2013-01-11 15:30:00,45.0,40.5,29.41,SW,219,2.0,6.0,84,0.00,,,0.01,VWS V14.00,2013-01-11 21:30:00,
2013-01-11 15:35:00,45.0,40.5,29.41,SW,236,0.0,0.0,84,0.00,,,0.01,VWS V14.00,2013-01-11 21:35:00,
2013-01-11 15:40:00,45.3,41.4,29.41,West,279,0.0,0.0,86,0.00,,,0.01,VWS V14.00,2013-01-11 21:40:00,
2013-01-11 15:45:00,44.9,40.4,29.41,West,279,2.0,3.0,84,0.00,,,0.01,VWS V14.00,2013-01-11 21:45:00,
2013-01-11 15:50:00,44.3,39.5,29.42,West,277,0.0,3.0,83,0.00,,,0.01,VWS V14.00,2013-01-11 21:50:00,
2013-01-11 15:55:00,44.0,39.2,29.42,SSW,207,0.0,3.0,83,0.00,,,0.01,VWS V14.00,2013-01-11 21:55:00,
2013-01-11 16:00:00,43.9,39.4,29.41,South,190,0.0,7.0,84,0.00,,,0.01,VWS V14.00,2013-01-11 22:00:00,
2013-01-11 16:05:00,43.8,39.3,29.41,South,183,0.0,0.0,84,0.00,,,0.01,VWS V14.00,2013-01-11 22:05:00,
2013-01-11 16:10:00,43.9,39.7,29.41,South,186,1.0,4.0,85,0.00,,,0.01,VWS V14.00,2013-01-11 22:10:00,
2013-01-11 16:15:00,44.1,39.9,29.41,South,186,1.0,6.0,85,0.00,,,0.01,VWS V14.00,2013-01-11 22:15:00,
2013-01-11 16:20:00,44.2,40.0,29.41,SSW,208,1.0,6.0,85,0.00,,,0.01,VWS V14.00,2013-01-11 22:20:00,
2013-01-11 16:25:00,44.2,40.0,29.42,WSW,255,1.0,6.0,85,0.00,,,0.01,VWS V14.00,2013-01-11 22:25:00,
2013-01-11 16:30:00,44.6,40.7,29.42,WNW,285,1.0,6.0,86,0.00,,,0.01,VWS V14.00,2013-01-11 22:30:00,
2013-01-11 16:35:00,45.0,41.4,29.41,WNW,285,0.0,0.0,87,0.00,,,0.01,VWS V14.00,2013-01-11 22:35:00,
2013-01-11 16:40:00,44.6,40.4,29.41,WNW,284,0.0,0.0,85,0.00,,,0.01,VWS V14.00,2013-01-11 22:40:00,
2013-01-11 16:45:00,43.9,39.1,29.42,WNW,296,1.0,4.0,83,0.00,,,0.01,VWS V14.00,2013-01-11 22:45:00,
2013-01-11 16:50:00,43.2,38.4,29.42,WNW,289,1.0,4.0,83,0.00,,,0.01,VWS V14.00,2013-01-11 22:50:00,
2013-01-11 16:55:00,43.2,39.3,29.42,WNW,289,3.0,4.0,86,0.00,,,0.01,VWS V14.00,2013-01-11 22:55:00,
2013-01-11 17:00:00,43.5,39.9,29.42,WNW,289,1.0,4.0,87,0.00,,,0.01,VWS V14.00,2013-01-11 23:00:00,
2013-01-11 17:05:00,42.9,39.0,29.42,WNW,288,0.0,0.0,86,0.00,,,0.01,VWS V14.00,2013-01-11 23:05:00,
2013-01-11 17:10:00,42.5,38.3,29.42,WNW,289,0.0,0.0,85,0.00,,,0.01,VWS V14.00,2013-01-11 23:10:00,
2013-01-11 17:15:00,42.1,37.9,29.42,WNW,289,0.0,0.0,85,0.00,,,0.01,VWS V14.00,2013-01-11 23:15:00,
2013-01-11 17:20:00,41.8,37.6,29.43,WNW,289,2.0,3.0,85,0.00,,,0.01,VWS V14.00,2013-01-11 23:20:00,
2013-01-11 17:25:00,41.6,37.4,29.42,WNW,289,0.0,3.0,85,0.00,,,0.01,VWS V14.00,2013-01-11 23:25:00,
2013-01-11 17:30:00,41.7,38.1,29.43,WNW,289,1.0,3.0,87,0.00,,,0.01,VWS V14.00,2013-01-11 23:30:00,
2013-01-11 17:35:00,41.8,38.2,29.43,WNW,290,1.0,2.0,87,0.00,,,0.01,VWS V14.00,2013-01-11 23:35:00,
2013-01-11 17:40:00,41.5,37.9,29.43,WNW,290,1.0,3.0,87,0.00,,,0.01,VWS V14.00,2013-01-11 23:40:00,
2013-01-11 17:45:00,41.3,37.7,29.43,WNW,289,0.0,3.0,87,0.00,,,0.01,VWS V14.00,2013-01-11 23:45:00,
2013-01-11 17:50:00,41.1,37.5,29.43,WNW,296,2.0,4.0,87,0.00,,,0.01,VWS V14.00,2013-01-11 23:50:00,
2013-01-11 17:55:00,41.0,37.4,29.43,WNW,286,3.0,4.0,87,0.00,,,0.01,VWS V14.00,2013-01-11 23:55:00,
2013-01-11 18:00:00,41.1,37.8,29.44,WNW,295,3.0,4.0,88,0.00,,,0.01,VWS V14.00,2013-01-12 00:00:00,
2013-01-11 18:05:00,41.6,38.6,29.43,WNW,292,2.0,4.0,89,0.00,,,0.01,VWS V14.00,2013-01-12 00:05:00,
2013-01-11 18:10:00,41.3,38.0,29.43,WNW,292,2.0,4.0,88,0.00,,,0.01,VWS V14.00,2013-01-12 00:10:00,
2013-01-11 18:15:00,41.1,37.8,29.43,WNW,292,0.0,4.0,88,0.00,,,0.01,VWS V14.00,2013-01-12 00:15:00,
2013-01-11 18:20:00,41.0,37.4,29.43,WNW,292,0.0,4.0,87,0.00,,,0.01,VWS V14.00,2013-01-12 00:20:00,
2013-01-11 18:25:00,40.8,37.5,29.43,WNW,291,0.0,4.0,88,0.00,,,0.01,VWS V14.00,2013-01-12 00:25:00,
2013-01-11 18:30:00,40.8,37.5,29.43,WNW,291,0.0,4.0,88,0.00,,,0.01,VWS V14.00,2013-01-12 00:30:00,
2013-01-11 18:35:00,41.1,38.1,29.44,WNW,292,0.0,0.0,89,0.00,,,0.01,VWS V14.00,2013-01-12 00:35:00,
2013-01-11 18:40:00,41.1,37.8,29.44,WNW,295,1.0,5.0,88,0.00,,,0.01,VWS V14.00,2013-01-12 00:40:00,
2013-01-11 18:45:00,40.9,37.6,29.44,NW,309,3.0,5.0,88,0.00,,,0.01,VWS V14.00,2013-01-12 00:45:00,
2013-01-11 18:50:00,40.6,37.3,29.45,NW,317,2.0,6.0,88,0.00,,,0.01,VWS V14.00,2013-01-12 00:50:00,
2013-01-11 18:55:00,40.0,36.5,29.45,NW,326,3.0,10.0,87,0.00,,,0.01,VWS V14.00,2013-01-12 00:55:00,
2013-01-11 19:00:00,39.5,36.0,29.46,WNW,292,5.0,10.0,87,0.00,,,0.01,VWS V14.00,2013-01-12 01:00:00,
2013-01-11 19:05:00,39.7,36.7,29.47,WNW,293,4.0,5.0,89,0.00,,,0.01,VWS V14.00,2013-01-12 01:05:00,
2013-01-11 19:10:00,38.8,35.3,29.47,NW,306,1.0,7.0,87,0.00,,,0.01,VWS V14.00,2013-01-12 01:10:00,
2013-01-11 19:15:00,38.0,34.5,29.48,West,279,7.0,10.0,87,0.00,,,0.01,VWS V14.00,2013-01-12 01:15:00,
2013-01-11 19:20:00,37.4,34.2,29.48,NW,314,3.0,10.0,88,0.00,,,0.01,VWS V14.00,2013-01-12 01:20:00,
2013-01-11 19:25:00,37.1,34.2,29.49,WNW,300,7.0,10.0,89,0.00,,,0.01,VWS V14.00,2013-01-12 01:25:00,
2013-01-11 19:30:00,37.2,34.3,29.50,NW,308,10.0,14.0,89,0.00,,,0.01,VWS V14.00,2013-01-12 01:30:00,
2013-01-11 19:35:00,36.3,33.4,29.49,WNW,302,3.0,6.0,89,0.00,,,0.01,VWS V14.00,2013-01-12 01:35:00,
2013-01-11 19:40:00,35.7,32.8,29.50,West,277,5.0,11.0,89,0.00,,,0.01,VWS V14.00,2013-01-12 01:40:00,
2013-01-11 19:45:00,35.3,32.4,29.51,NW,322,10.0,13.0,89,0.00,,,0.01,VWS V14.00,2013-01-12 01:45:00,
2013-01-11 19:49:00,35.5,33.1,29.52,WNW,302,6.0,13.0,91,0.00,,,0.01,VWS V14.00,2013-01-12 01:49:00,
2013-01-11 19:54:00,35.0,32.4,29.52,West,281,4.0,16.0,90,0.00,,,0.01,VWS V14.00,2013-01-12 01:54:00,
2013-01-11 19:59:00,34.4,31.8,29.53,NW,322,7.0,16.0,90,0.00,,,0.01,VWS V14.00,2013-01-12 01:59:00,
2013-01-11 20:04:00,33.8,31.2,29.52,NNW,334,6.0,7.0,90,0.00,,,0.01,VWS V14.00,2013-01-12 02:04:00,
2013-01-11 20:09:00,33.7,31.1,29.53,WNW,300,3.0,15.0,90,0.00,,,0.01,VWS V14.00,2013-01-12 02:09:00,
2013-01-11 20:14:00,33.4,30.8,29.54,West,273,12.0,15.0,90,0.00,,,0.01,VWS V14.00,2013-01-12 02:14:00,
2013-01-11 20:19:00,33.0,30.1,29.55,NW,306,13.0,17.0,89,0.00,,,0.01,VWS V14.00,2013-01-12 02:19:00,
2013-01-11 20:24:00,32.9,30.0,29.58,West,277,5.0,17.0,89,0.00,,,0.01,VWS V14.00,2013-01-12 02:24:00,
2013-01-11 20:29:00,32.9,30.0,29.59,NW,308,5.0,21.0,89,0.00,,,0.01,VWS V14.00,2013-01-12 02:29:00,
2013-01-11 20:34:00,32.8,29.9,29.59,West,273,4.0,4.0,89,0.00,,,0.01,VWS V14.00,2013-01-12 02:34:00,
2013-01-11 20:39:00,33.1,30.2,29.58,WNW,290,11.0,20.0,89,0.00,,,0.01,VWS V14.00,2013-01-12 02:39:00,
2013-01-11 20:44:00,32.6,29.5,29.59,WNW,302,6.0,23.0,88,0.00,,,0.01,VWS V14.00,2013-01-12 02:44:00,
2013-01-11 20:49:00,32.0,28.9,29.60,NW,309,18.0,24.0,88,0.00,,,0.01,VWS V14.00,2013-01-12 02:49:00,
2013-01-11 20:54:00,31.7,28.6,29.61,NNW,341,5.0,24.0,88,0.00,,,0.01,VWS V14.00,2013-01-12 02:54:00,
2013-01-11 20:59:00,31.6,28.5,29.61,NW,307,15.0,24.0,88,0.00,,,0.01,VWS V14.00,2013-01-12 02:59:00,
2013-01-11 21:04:00,30.7,27.3,29.63,West,276,12.0,29.0,87,0.00,,,0.01,VWS V14.00,2013-01-12 03:04:00,
2013-01-11 21:09:00,30.3,26.9,29.64,West,271,15.0,28.0,87,0.00,,,0.01,VWS V14.00,2013-01-12 03:09:00,
2013-01-11 21:14:00,30.1,26.7,29.65,WNW,295,17.0,28.0,87,0.00,,,0.01,VWS V14.00,2013-01-12 03:14:00,
2013-01-11 21:19:00,30.2,27.1,29.66,West,269,15.0,28.0,88,0.00,,,0.01,VWS V14.00,2013-01-12 03:19:00,
2013-01-11 21:24:00,29.7,26.3,29.67,NW,304,20.0,28.0,87,0.00,,,0.01,VWS V14.00,2013-01-12 03:24:00,
2013-01-11 21:29:00,29.2,25.5,29.67,WNW,284,10.0,28.0,86,0.00,,,0.01,VWS V14.00,2013-01-12 03:29:00,
2013-01-11 21:34:00,29.0,25.4,29.67,North,5,18.0,28.0,86,0.00,,,0.01,VWS V14.00,2013-01-12 03:34:00,
2013-01-11 21:39:00,29.0,25.6,29.68,West,273,14.0,22.0,87,0.00,,,0.01,VWS V14.00,2013-01-12 03:39:00,
2013-01-11 21:44:00,28.8,25.1,29.68,NW,309,5.0,25.0,86,0.00,,,0.01,VWS V14.00,2013-01-12 03:44:00,
2013-01-11 21:49:00,28.5,24.6,29.68,WNW,287,11.0,27.0,85,0.00,,,0.01,VWS V14.00,2013-01-12 03:49:00,
2013-01-11 21:54:00,28.3,24.4,29.69,West,281,10.0,27.0,85,0.00,,,0.01,VWS V14.00,2013-01-12 03:54:00,
2013-01-11 21:59:00,28.3,24.4,29.70,WNW,295,16.0,27.0,85,0.00,,,0.01,VWS V14.00,2013-01-12 03:59:00,
2013-01-11 22:04:00,28.3,24.4,29.70,WNW,285,15.0,27.0,85,0.00,,,0.01,VWS V14.00,2013-01-12 04:04:00,
2013-01-11 22:09:00,27.9,23.4,29.70,NW,305,21.0,32.0,83,0.00,,,0.01,VWS V14.00,2013-01-12 04:09:00,
2013-01-11 22:14:00,27.5,22.7,29.70,NNW,337,12.0,32.0,82,0.00,,,0.01,VWS V14.00,2013-01-12 04:14:00,
2013-01-11 22:19:00,27.6,22.8,29.70,North,360,6.0,32.0,82,0.00,,,0.01,VWS V14.00,2013-01-12 04:19:00,
2013-01-11 22:24:00,27.3,21.7,29.70,NW,317,18.0,32.0,79,0.00,,,0.01,VWS V14.00,2013-01-12 04:24:00,
2013-01-11 22:29:00,26.9,21.0,29.71,West,277,13.0,32.0,78,0.00,,,0.01,VWS V14.00,2013-01-12 04:29:00,
2013-01-11 22:34:00,26.5,20.3,29.72,SW,216,10.0,32.0,77,0.00,,,0.01,VWS V14.00,2013-01-12 04:34:00,
2013-01-11 22:39:00,26.4,20.5,29.73,NW,309,10.0,31.0,78,0.00,,,0.01,VWS V14.00,2013-01-12 04:39:00,
2013-01-11 22:44:00,26.1,19.6,29.74,NW,317,9.0,31.0,76,0.00,,,0.01,VWS V14.00,2013-01-12 04:44:00,
2013-01-11 22:49:00,25.8,19.3,29.74,West,265,12.0,31.0,76,0.00,,,0.01,VWS V14.00,2013-01-12 04:49:00,
2013-01-11 22:54:00,25.6,19.7,29.75,WNW,300,15.0,31.0,78,0.00,,,0.01,VWS V14.00,2013-01-12 04:54:00,
2013-01-11 22:59:00,25.9,20.3,29.75,WNW,302,22.0,31.0,79,0.00,,,0.01,VWS V14.00,2013-01-12 04:59:00,
2013-01-11 23:00:00,25.9,20.3,29.75,West,276,24.0,31.0,79,0.00,,,0.01,VWS V14.00,2013-01-12 05:00:00,
2013-01-11 23:01:00,25.7,19.8,29.75,NW,307,13.0,31.0,78,0.00,,,0.01,VWS V14.00,2013-01-12 05:01:00,
2013-01-11 23:02:00,25.7,19.5,29.75,West,266,5.0,31.0,77,0.00,,,0.01,VWS V14.00,2013-01-12 05:02:00,
2013-01-11 23:07:00,25.5,18.7,29.75,West,269,17.0,32.0,75,0.00,,,0.01,VWS V14.00,2013-01-12 05:07:00,
2013-01-11 23:12:00,25.4,18.3,29.75,WNW,284,16.0,32.0,74,0.00,,,0.01,VWS V14.00,2013-01-12 05:12:00,
2013-01-11 23:17:00,25.5,18.4,29.76,WNW,287,22.0,32.0,74,0.00,,,0.01,VWS V14.00,2013-01-12 05:17:00,
2013-01-11 23:22:00,25.2,17.5,29.77,NNW,346,15.0,32.0,72,0.00,,,0.01,VWS V14.00,2013-01-12 05:22:00,
2013-01-11 23:27:00,24.9,17.2,29.77,NNW,336,17.0,32.0,72,0.00,,,0.01,VWS V14.00,2013-01-12 05:27:00,
2013-01-11 23:32:00,24.8,17.4,29.78,WNW,300,23.0,32.0,73,0.00,,,0.01,VWS V14.00,2013-01-12 05:32:00,
2013-01-11 23:37:00,24.9,18.1,29.78,WNW,289,12.0,28.0,75,0.00,,,0.01,VWS V14.00,2013-01-12 05:37:00,
2013-01-11 23:42:00,24.7,17.6,29.78,WSW,246,10.0,28.0,74,0.00,,,0.01,VWS V14.00,2013-01-12 05:42:00,
2013-01-11 23:47:00,24.7,17.6,29.79,WNW,295,9.0,28.0,74,0.00,,,0.01,VWS V14.00,2013-01-12 05:47:00,
2013-01-11 23:52:00,24.6,17.8,29.79,WNW,302,10.0,28.0,75,0.00,,,0.01,VWS V14.00,2013-01-12 05:52:00,
2013-01-11 23:57:00,25.1,19.5,29.80,West,281,16.0,28.0,79,0.00,,,0.01,VWS V14.00,2013-01-12 05:57:00,